Presure
136 133 142 142 134 148 133 158 182 168 144 163 130 163 144 155 154 162 166 164 153 165 178 160 141 161 189 193 188 174 198 262 365 368 166 427 422 226 109 204 136 130 125 146 158
130 131 143 140 126 145 145 167 170 155 141 146 150 133 148 151 164 166 142 174 167 163 192 174 170 174 152 175 198 171 178 325 197 173 394 242 353 129 358 235 317 86 136 152 122
142 130 132 128 121 153 157 151 158 152 140 146 166 146 153 164 157 174 167 138 147 150 172 172 139 204 177 209 223 219 182 457 165 409 315 264 165 168 193 207 320 434 130 133 147
140 141 119 152 151 158 149 144 154 158 150 150 151 156 156 155 165 160 159 169 149 135 177 175 181 182 162 180 217 229 164 463 434 167 388 136 116 127 374 384 406 458 117 123 134
127 128 139 133 139 149 145 145 131 135 163 147 165 159 166 162 152 134 156 146 172 163 180 182 174 156 177 143 201 219 156 259 355 180 250 370 363 226 299 234 377 274 275 222 155
137 129 140 140 145 142 143 141 146 138 157 143 181 167 151 153 162 174 163 127 178 157 184 182 209 193 184 218 185 169 178 387 137 383 366 173 343 352 361 168 139 152 111 269 197
131 124 132 149 150 137 156 140 148 153 164 151 162 160 147 161 151 155 128 151 166 149 188 171 168 205 179 204 168 191 414 414 135 374 361 276 375 352 135 454 189 369 200 233 213
125 135 135 145 145 131 156 138 163 134 145 137 156 149 154 146 152 147 177 163 175 191 180 193 189 200 160 155 212 148 385 140 379 129 419 357 162 394 250 137 472 385 402 287 177
138 133 150 146 140 140 155 135 150 151 160 152 171 156 144 162 148 130 121 165 174 183 126 195 148 193 221 202 189 509 149 136 233 177 262 258 180 307 465 133 423 403 356 272 147
146 142 151 142 133 152 151 136 144 135 157 142 153 151 144 159 160 137 151 171 133 175 178 198 207 175 219 203 184 198 400 170 142 293 419 429 165 130 424 449 248 378 209 204 222
129 141 151 151 135 135 152 135 145 143 135 137 159 137 148 142 162 124 170 167 162 205 166 159 196 205 196 253 242 379 394 232 118 128 141 307 162 163 372 438 110 190 215 149 209
142 139 139 129 144 136 148 156 141 141 145 143 162 125 163 153 143 166 163 152 136 172 190 139 210 218 234 198 224 413 385 231 388 428 430 401 164 158 241 117 196 172 173 187 162
147 142 130 142 148 150 152 147 155 146 144 156 137 146 140 140 162 161 123 167 184 194 187 193 182 234 187 166 186 426 449 437 416 182 231 133 141 260 150 109 316 339 178 179 197
150 137 135 129 142 138 148 158 151 149 142 152 150 160 153 150 159 158 124 174 178 177 152 195 186 225 181 165 141 434 434 410 386 136 145 361 283 159 134 138 141 173 317 209 176
139 150 138 147 147 151 147 142 150 129 139 128 165 142 132 158 163 144 163 177 181 185 205 209 227 191 132 194 350 437 209 381 381 351 324 252 296 357 360 395 194 325 171 170 141
142 124 125 144 127 146 152 145 143 162 137 147 155 166 157 148 147 150 175 150 154 210 200 159 220 200 181 187 459 463 411 386 364 356 355 122 133 350 357 385 328 326 234 161 305
143 152 148 138 157 139 140 138 139 122 142 165 152 147 159 138 167 172 175 170 177 140 156 203 147 224 199 379 452 431 407 378 373 261 355 144 333 346 356 376 325 333 315 271 180
143 146 142 150 139 152 134 130 166 144 137 102 123 163 155 154 170 176 170 178 175 185 200 149 211 196 142 429 479 215 394 375 321 366 348 233 343 340 341 360 373 337 310 323 293
136 145 158 152 154 146 124 141 136 144 154 158 113 164 145 160 167 165 137 128 182 198 147 153 201 235 182 433 416 405 172 356 143 130 351 335 349 339 339 340 374 348 324 304 291
166 154 158 149 147 155 152 157 147 147 159 136 163 165 170 166 175 172 184 178 175 186 106 173 202 266 257 303 411 436 376 339 133 361 175 345 349 339 327 324 356 352 325 312 306
135 145 144 154 155 152 157 157 151 156 151 149 155 147 146 162 163 177 166 159 175 141 206 165 201 191 212 420 350 452 414 122 284 142 164 329 319 321 330 335 347 362 389 318 321
166 176 120 159 149 146 148 162 141 137 148 164 155 172 179 161 153 163 190 181 178 105 188 204 255 226 305 430 416 403 429 129 199 337 205 311 311 311 322 325 330 334 350 342 309
118 160 167 154 160 144 167 166 154 155 157 171 162 109 161 159 150 150 175 192 179 166 105 209 215 185 260 427 420 403 441 406 134 345 321 311 315 317 316 305 331 326 365 367 316
194 176 164 141 170 137 159 155 161 169 180 163 180 175 160 171 149 155 186 152 174 228 232 219 204 170 300 338 429 401 458 398 254 384 349 308 317 306 307 310 318 331 344 352 342
183 175 155 183 164 160 163 160 172 171 177 175 163 181 157 161 160 181 201 159 225 226 200 240 263 280 294 379 405 350 204 142 394 137 320 313 311 305 297 292 297 306 321 370 345
184 153 151 160 172 175 186 150 184 171 186 160 159 168 154 156 194 191 214 119 218 222 246 250 242 276 290 253 416 406 359 427 405 395 179 314 304 300 291 294 290 296 315 340 368
169 181 177 156 198 186 186 186 147 171 180 180 183 166 202 194 193 216 207 158 215 240 243 159 202 293 289 327 350 405 393 254 137 342 325 309 295 285 294 285 287 281 297 302 362
Wind_Speed
23 22 31 33 29 45 33 50 42 41 43 48 36 51 37 51 50 50 52 51 36 58 62 46 62 52 83 88 83 67 79 113 63 35 52 30 27 42 45 26 34 39 32 50 46
24 25 35 33 31 44 42 47 39 40 39 41 49 38 48 44 62 60 32 62 54 48 77 60 54 72 74 78 94 51 49 89 33 45 25 47 15 10 24 26 40 28 42 50 46
38 28 31 33 33 47 41 44 40 43 41 46 49 42 54 63 51 73 60 34 47 33 53 68 62 96 67 110 116 109 73 57 30 28 21 37 10 64 49 57 29 45 49 46 51
40 36 31 48 51 50 42 37 46 47 47 50 53 57 60 55 67 58 46 58 43 43 61 69 71 86 72 81 116 117 16 50 34 36 18 43 20 11 29 35 39 47 44 52 48
34 30 42 37 42 43 45 44 44 46 61 54 66 60 67 67 45 35 43 33 60 39 76 74 72 68 87 53 94 119 28 34 27 30 26 18 16 25 32 33 46 47 56 61 51
43 36 46 39 52 48 45 47 51 51 58 53 78 66 60 57 68 75 64 34 74 43 74 71 111 99 93 116 81 37 52 39 37 19 16 37 19 25 25 39 29 47 47 80 70
41 38 38 59 55 48 54 50 56 57 70 59 67 67 53 71 54 54 30 35 65 33 88 53 48 114 73 102 61 69 39 38 30 21 13 25 18 24 33 33 62 62 66 51 73
43 48 50 51 50 50 60 53 70 54 64 52 66 57 62 46 56 46 89 61 77 94 72 89 82 113 69 55 120 24 35 32 24 31 14 13 35 14 41 17 34 71 77 78 55
55 50 60 58 50 54 64 54 57 66 81 71 87 68 49 76 47 38 29 64 75 86 51 105 52 100 127 101 69 29 34 29 18 26 10 23 40 12 8 17 68 83 86 88 59
60 58 62 55 52 69 64 58 60 56 78 59 70 67 55 77 75 44 50 72 42 83 61 112 118 84 128 97 59 58 29 28 28 14 14 10 38 32 17 21 61 79 73 71 71
56 57 61 63 54 57 69 59 64 64 58 52 79 45 59 47 79 34 85 70 62 122 43 51 102 114 100 144 115 29 29 21 21 27 25 15 37 45 9 40 40 58 78 57 81
69 56 52 53 64 59 65 74 64 61 70 66 84 41 83 77 53 89 67 53 44 86 105 61 114 120 144 75 111 32 28 20 11 6 6 19 37 43 36 49 34 60 46 70 55
78 61 53 61 70 72 70 70 77 68 67 79 51 64 47 46 88 84 39 89 110 119 105 95 75 138 79 42 45 26 7 6 18 24 12 26 32 10 39 52 72 91 51 62 92
79 57 59 55 66 62 67 80 75 72 67 78 71 84 78 68 80 77 40 100 102 84 40 107 77 132 69 4 30 18 3 20 14 25 26 18 20 41 35 42 40 62 78 55 79
67 74 64 72 70 74 69 68 76 52 63 44 93 64 43 86 92 47 87 104 102 103 133 120 140 75 20 78 36 12 20 18 23 14 19 21 22 24 23 22 53 80 67 65 51
72 51 52 72 55 72 79 76 72 90 63 77 83 94 80 57 55 73 103 68 54 136 124 70 134 76 59 20 15 1 14 15 10 14 25 28 33 31 32 25 81 92 73 73 91
77 83 76 69 85 69 70 72 70 48 72 98 80 65 84 45 98 105 107 94 104 51 50 116 40 121 81 45 17 1 15 9 15 23 27 32 32 33 29 28 82 94 89 87 94
82 82 75 81 73 82 67 59 96 69 63 33 47 97 82 80 102 109 102 107 93 107 119 57 125 81 26 46 9 20 6 10 16 23 20 23 30 32 38 22 23 103 91 89 94
70 84 91 87 90 80 52 77 65 80 91 94 39 101 56 91 97 87 50 44 109 127 47 66 107 147 55 43 37 23 19 14 20 24 21 17 28 30 35 35 23 103 102 91 90
100 96 97 85 84 95 82 95 78 78 98 65 100 106 105 98 112 95 119 110 87 106 17 65 103 135 80 108 38 13 17 11 22 12 21 20 24 30 31 33 29 54 98 96 91
65 84 85 100 99 96 98 99 89 96 88 81 89 79 54 93 87 114 81 66 100 36 136 77 111 69 79 46 68 11 8 24 17 22 26 24 21 20 19 16 18 19 30 93 99
106 105 43 101 94 86 87 105 65 55 83 104 90 112 116 96 50 79 125 117 94 18 104 139 135 131 102 41 36 26 10 23 17 12 20 21 21 22 24 19 20 35 38 80 93
51 107 109 102 108 74 107 109 96 97 102 107 96 30 94 80 45 61 107 127 103 77 21 135 116 54 117 48 37 27 12 13 21 19 30 31 28 24 22 18 16 24 25 44 99
90 102 111 72 108 76 105 99 106 111 113 85 116 109 99 115 46 62 122 73 103 134 134 106 88 46 97 100 34 29 9 12 16 31 28 32 31 24 24 21 19 18 21 42 89
108 106 81 112 92 94 108 104 110 107 112 113 101 114 64 86 80 109 136 64 127 130 133 121 125 104 95 66 40 25 14 22 19 15 39 35 37 34 35 32 27 21 15 24 72
104 102 93 107 111 108 110 78 110 107 113 102 93 105 69 58 127 128 123 29 128 125 123 124 120 91 95 97 35 27 16 11 23 24 14 46 45 41 36 37 32 25 21 22 38
100 112 111 96 105 112 112 112 63 110 116 117 120 88 126 126 91 119 107 59 119 120 123 39 71 96 94 105 55 28 19 18 19 51 44 52 41 39 44 40 37 34 32 23 34
Wind_Direction
318 321 330 332 320 333 310 332 335 331 325 320 305 317 313 317 312 319 320 320 310 320 330 311 284 305 340 335 319 306 312 333 308 296 223 277 260 265 240 237 209 212 221 209 211
310 317 330 324 305 328 321 338 333 325 317 314 317 306 315 316 316 318 283 318 318 324 337 332 327 316 289 310 331 301 300 326 270 230 283 240 230 193 236 224 221 232 218 209 219
317 309 311 306 296 331 332 332 331 322 313 314 323 308 312 317 315 319 320 277 307 306 334 334 299 338 325 338 337 333 294 323 237 303 263 261 142 245 250 213 212 199 195 211 211
315 317 291 326 332 330 324 319 329 319 314 314 314 313 314 318 318 314 321 327 306 293 337 343 333 336 298 314 338 336 268 325 316 248 282 256 164 274 211 208 202 194 231 208 218
295 296 309 308 318 324 316 316 305 311 328 317 321 316 313 316 312 303 322 305 331 340 335 331 337 293 333 298 333 336 273 282 299 271 245 251 235 273 210 186 197 179 191 193 209
304 294 311 314 318 311 307 311 314 309 321 311 329 317 314 317 318 323 320 296 331 332 335 331 342 340 333 341 319 293 312 317 248 297 270 259 229 215 218 221 182 226 225 200 198
293 290 298 313 318 312 309 308 312 315 322 316 320 320 318 315 314 317 308 331 328 305 336 332 333 345 329 338 298 296 325 318 243 302 276 247 228 215 192 208 206 182 203 181 206
286 296 301 309 312 300 312 305 319 308 312 311 315 316 316 312 314 318 320 328 332 332 338 339 351 343 311 308 342 253 327 255 314 256 296 251 191 233 222 214 213 183 169 184 206
293 291 302 307 304 305 312 302 309 312 318 315 322 315 316 317 314 312 308 333 328 330 298 338 309 340 339 333 311 335 256 254 248 253 247 242 224 281 213 202 188 177 176 189 208
294 293 299 299 296 307 306 300 300 305 316 310 314 313 318 316 319 318 325 331 305 331 336 339 340 334 341 332 333 327 334 257 260 299 305 324 230 162 203 196 200 179 197 200 201
280 289 295 299 294 297 305 300 299 302 307 311 316 313 317 319 320 311 323 337 325 329 332 320 344 342 344 340 339 334 333 283 280 274 237 225 227 239 271 188 193 217 194 207 197
282 284 290 292 296 293 299 307 305 302 303 307 313 317 315 319 320 323 332 329 310 336 335 318 341 338 338 342 341 342 340 261 336 34 67 106 221 234 233 181 210 212 222 202 211
282 285 286 292 294 296 300 301 308 303 305 307 313 317 321 317 318 322 304 331 326 328 336 343 337 336 337 304 318 340 13 79 109 234 202 248 241 251 245 193 184 178 204 206 203
281 284 288 291 289 293 294 303 301 305 304 306 311 313 315 321 318 326 311 326 330 342 297 342 333 336 316 292 246 347 30 135 126 244 250 147 178 228 254 242 243 214 178 203 213
281 284 286 288 290 293 292 294 298 306 305 313 308 316 315 315 316 319 329 326 330 334 328 331 333 342 277 328 331 351 249 161 154 167 176 196 172 152 183 203 216 185 211 209 228
280 285 290 286 296 290 294 296 299 304 308 306 307 307 316 325 323 325 323 323 323 324 331 334 336 333 312 306 353 150 159 179 193 201 164 256 254 172 182 195 184 185 200 212 193
279 280 281 285 289 290 292 296 299 306 306 304 310 312 315 321 318 320 322 330 325 326 326 326 335 342 341 346 354 156 176 232 195 217 172 245 175 181 178 179 189 186 188 197 211
279 280 283 284 288 289 293 299 299 301 308 275 305 308 314 318 317 318 325 327 333 324 332 334 338 341 296 360 357 257 290 268 215 188 193 236 191 194 186 180 178 191 194 190 198
280 281 281 284 286 288 290 294 302 300 300 303 295 308 313 319 319 326 316 315 329 324 311 329 331 334 321 355 358 344 249 319 245 251 203 211 197 208 200 196 195 192 193 197 198
274 278 280 284 286 288 292 291 297 298 299 302 305 307 309 315 315 317 316 326 329 333 270 337 346 336 340 346 354 330 325 266 252 227 255 183 196 207 205 208 202 199 194 197 201
274 279 283 281 284 286 289 290 295 296 301 308 309 305 325 319 325 316 333 335 325 334 324 327 332 331 332 355 348 322 280 254 244 261 252 154 158 162 154 175 177 174 203 204 201
272 275 272 277 282 286 290 288 299 303 300 298 307 303 303 316 328 326 313 321 322 257 336 329 332 335 346 352 350 348 264 248 256 154 242 177 175 166 151 171 174 186 191 198 197
273 273 275 278 279 288 282 285 293 295 296 296 299 288 312 321 324 324 320 316 328 330 294 329 334 327 338 354 348 345 244 224 260 207 177 180 169 154 146 164 164 185 196 189 198
274 273 273 277 275 280 283 288 289 290 294 301 297 304 309 305 323 319 314 316 316 323 326 331 344 320 344 355 344 342 300 239 241 204 182 184 171 162 149 150 144 161 186 194 199
269 272 274 277 281 284 283 286 288 291 292 295 300 299 304 318 319 310 310 313 322 323 324 330 333 341 344 346 343 331 255 261 215 267 170 179 163 157 150 148 145 149 174 192 196
267 272 277 277 276 281 283 293 287 290 295 296 302 302 317 317 307 308 316 305 320 325 327 328 328 340 340 340 340 334 316 271 217 204 255 162 157 159 158 142 148 139 153 184 196
267 269 272 278 281 278 279 281 293 289 291 295 297 299 302 304 316 314 321 324 325 327 325 317 327 341 341 357 340 329 319 262 263 185 182 169 169 179 155 159 152 160 145 153 177